Погода в Акбайтале

Погода в Акбайтале : погода сейчас, прогноз погоды и архив. Всё, что Вы хотите узнать о погоде в Акбайтале!

Хотите узнать прогноз погоды в Акбайтале? Тогда Вам сюда: Погода в Акбайтале

Поиск расширенной информации на нашем сайте:

Другие новости

Новости СМИ2

Главная страница сайта

Новости сайта

03.07.2017

Напоминаем, что на нашем специализированном сайте Метеоцентр.Азия вы можете получить высокодетализированные автоматические прогнозы погоды по пунктам России, СНГ и мира в авиационном формате (включающие направление и скорость ветра, видимость, явления погоды, количество и форму облачности, нижнюю и верхнюю границу облачности).

Рекомендуем: купим бульдозер коматсу д-355а

Погода в Акбайтале - сегодня

Время (UTC), дата Ветер
(°,м/с) 
Видим.   Явления Облачность Т
(°С)
Тd
(°С)
f(%) Тe
(°С)
Pmin
(гПа)
dP
(гПа)
Po
(мм)
O2
(г/м3)
Тmin Tmax R s Состояние
почвы
03 19.07.17 020 (С) 20000 м    ясно 
+25.7 +4.8 26 +26  1013.5  740  272  +23         
06 19.07.17 050 (СВ) 20000 м    ясно 
+30.7 +7.4 23 +31  1013.7  0.5  741  267  +23         
09 19.07.17 040 (СВ) 20000 м    ясно 
+32.9 +7.7 21 +33  1012.7  -0.7  740  265           
12 19.07.17 350 (С) 20000 м    3/3 1000 м 
[Cu hum]
+33.6 +7.7 20 +34  1011.1  -1.5  739  264           
15 19.07.17 030 (СВ) 20000 м    ясно 
+31.2 +6.8 22 +31  1011.2  -0.2  739  266    +33.6       
18 19.07.17 010 (С) н/о    ясно 
+28 +6.1 25 +28  1011.5  739  269    +33.6       
00 20.07.17 360 (С) 20000 м    ясно 
+21.5 +3.6 31 +22  1011.3  -0.2  738  275           
03 20.07.17 010 (С) 20000 м    ясно 
+24.5 +5.5 29 +25  1011.4  0.5  739  272  +21.5         
06 20.07.17 030 (СВ) 20000 м    ясно 
+32 +8.9 24 +32  1010.5  -0.2  738  265  +21.5         
09 20.07.17 050 (СВ) 20000 м    ясно 
+33.3 +7.1 20 +33  1009.8  -0.8  738  264           
12 20.07.17 060 (СВ) 20000 м    ясно 
+35 +7.7 19 +35  1008.3  -1.3  737  262           
15 20.07.17 040 (СВ) 20000 м    ясно 
+32.3 +7.4 21 +32  1008.4  -0.1  737  264    +35       
18 20.07.17 020 (С) н/о    ясно 
+27.6 +5.1 24 +28  1009.2  0.4  737  269    +35       
21 20.07.17 020 (С) н/о    ясно 
+24.2 +4.8 28 +24  1011  -0.7  738  273           
00 21.07.17 360 (С) 20000 м    ясно 
+21.8 +3.2 29 +22  1009.1  0.1  737  274           
03 21.07.17 020 (С) 20000 м    4/0 верхняя 
[Ci sp]
+24.2 +5 29 +24  1010.3  1.4  738  272           
06 21.07.17 010 (С) 20000 м    5/0 верхняя 
[Ci fib]
+33.3 +9.5 23 +34  1009.6  0.1  738  263  +21.8         
09 21.07.17 060 (СВ) 20000 м    3/0 верхняя 
[Ci fib]
+35.7 +8.8 19 +36  1008.9  -0.5  736  261           
12 21.07.17 040 (СВ) 20000 м    ясно 
+36.3 +8.1 18 +36  1008.1  -0.8  737  261           
15 21.07.17 030 (СВ) 20000 м    ясно 
+34.2 +8 20 +34  1008.7  0.4  737  263    +36.3       
21 21.07.17 360 (С) н/о    ясно 
+26 +5.3 26 +26  1009.2  -0.3  737  270           
00 22.07.17 010 (С) 20000 м    ясно 
+23.8 +4.8 29 +24  1009.4  0.1  737  272           
03 22.07.17 020 (С) 20000 м    ясно 
+27.5 +6.8 27 +28  1010  0.9  738  269  +23.8         
06 22.07.17 030 (СВ) 20000 м    ясно 
+36 +11.3 23 +39  1010.1  0.7  738  261  +22.8         
09 22.07.17 050 (СВ) 20000 м    ясно 
+38 +9.9 18 +39  1009.4  -0.4  738  259           
Время (UTC), дата Ветер
(°,м/с) 
Видим.   Явления Облачность Т
(°С)
Тd
(°С)
f(%) Тe
(°С)
Pmin
(гПа)
dP
(гПа)
Po
(мм)
O2
(г/м3)
Тmin Tmax R s Состояние
почвы

Для получения пояснительной информации подведите курсор к названию столбца.

ПОГОДА в Акбайтале - архив

Всё, что Вы хотите узнать о погоде в Акбайтале - удобно и подробно!

Выберите нужную дату (начиная с 1 января 2015* года) и нажмите кнопку "Найти".
Будут отображены архивные сводки погоды по пункту Акбайтал, начиная с указанной даты.


Отображать данные в формате CSV (для использования в таблицах Excel)


Внимание! Наш архив погоды предназначен исключительно для личного некоммерческого использования в познавательных целях. Если Вам необходимы официальные справки о состоянии погоды (для производственных, юридических, коммерческих и т.п. целей), обращайтесь в органы Росгидромета.

*Примечание: данная дата относится к архиву по метеостанциям СССР (Россия, СНГ, Балтия).
Архив по метеостанциям Зарубежной Европы и Азии (кроме Китая) хранится 10 дней, по другим регионам земного шара (Китай, Африка, Америка, Австралия, Океания) - 1 день.

Акбайтал - район местоположения метеостанции


Название, широта, долгота, высота метеостанции:
Акбайтал 43.2°ш. 64.3°д. 234 м над ур. моря [Узбекистан]

Дополнительная информация

В oтличие oт бoльшинства пoгoдных сайтoв мы публикуем пoдрoбную метеoинфoрмацию в детальнoм прoфессиoнальнoм фoрмате.

Характеристики температуры и влажнoсти вoздуха измеряются на высoте 2 м в тени вдали oт зданий и деревьев.
Скoрoсть ветра измеряется на высoте 10 м (на урoвне рoста челoвека скoрoсть ветра ниже в 1.5-2 раза). Если метеoстанция нахoдится в гoрoде или в лесу, тo скoрoсть ветра занижена на 2-4 м/с пo сравнению с oткрытым местoм. Скoрoсть ветра над акватoриями крупных рек и oзёр, а также на вершинах хoлмoв на 2-5 м/с выше, чем в oбычных услoвиях.
Атмoсфернoе давление в разных тoчках местнoсти мoжет значительнo oтличаться oт давления на метеoстанции, в зависимoсти oт услoвий рельефа (при пoдъёме на 10 м давление пoнижается примернo на 1 мм рт.ст.).